Hourly Data Report for August 01, 2000

SHERBROOKE A
QUEBEC

45°26'00.000" N
71°41'00.000" W
241.40 m
7028124
71610
YSC

Download Data

Hourly Data (August 2000)
Hourly Data Report for August 1, 2000
TIME
LST
Temp Definition
°C
Dew Point Definition
°C
Rel Hum Definition
%
Precip. Amount Definition
mm

Wind Dir Definition
10's deg

Wind Spd Definition
km/h
Visibility Definition
km
Stn Press Definition
kPa
Hmdx Definition


Wind Chill Definition


Weather Definition


00:00 15.7 14.0 90   12 7 15.0 99.28      
01:00 15.3 13.7 90   11 6 15.0 99.22      
02:00 15.3 13.5 89   9 4 15.0 99.18      
03:00 13.8 12.8 94   11 7 15.0 99.15      
04:00 14.0 13.1 94   8 4 15.0 99.12      
05:00 14.8 13.8 94   12 7 15.0 99.12      
06:00 16.9 14.1 84   10 7 15.0 99.08      
07:00 17.7 14.1 79   9 4 24.1 99.08     Mostly Cloudy
08:00 19.6 13.7 69   15 11 24.1 99.05     Mostly Cloudy
09:00 19.7 13.7 68   15 13 24.1 99.05     Cloudy
10:00 19.6 14.1 71   15 7 24.1 99.05     Cloudy
11:00 20.6 15.2 71   15 9 24.1 99.02 25   Rain Showers
12:00 19.3 15.9 81   18 6 24.1 98.98     Cloudy
13:00 20.1 17.1 83   14 13 24.1 98.95 25   Cloudy
14:00 21.2 17.2 78   19 13 24.1 98.92 27   Cloudy
15:00 21.8 17.5 77   14 13 24.1 98.88 27   Cloudy
16:00 21.4 16.8 75   14 15 24.1 98.85 27   Cloudy
17:00 21.3 16.6 75   15 11 15.0 98.79 26    
18:00 20.3 16.3 78   12 13 15.0 98.75 25    
19:00 19.8 15.7 77   13 15 15.0 98.75      
20:00 19.1 15.5 80   14 9 15.0 98.79      
21:00 19.1 15.4 79   14 9 15.0 98.79      
22:00 18.4 15.6 84   13 9 15.0 98.75      
23:00 17.8 15.6 87   13 9 15.0 98.72      

Notes on Data Quality.

Legend

  • E = Estimated
  • M = Missing
  • NA = Not Available*
  • [empty] = Indicates an unobserved value
Date modified: